Flag for Canada Weather past 2 weeks in Sherbrooke, Quebec, Canada

Now
63 °F

Clear.


Feels Like: 63 °F
Forecast: 57 / 73 °F
Wind: 12 mph from South

Location: Sherbrooke

Current Time: Sep 21, 2014 at 4:54:35 AM

Latest Report: Sep 21, 2014 at 4:00 AM


Visibility: 9 mi

Pressure: 29.83 "Hg

Humidity: 77%

Dew point: 55 °F

Location of SherbrookeLocation

Historic Weather in Sherbrooke — Graph

°F

Sherbrooke temperature yesterday

Maximum temperature yesterday: 63 °F (at 4:00 PM)
Minimum temperature yesterday: 34 °F (at 12:00 AM)
Average temperature yesterday: 51 °F

Past Weeks' High & Low Weather Summary

 TemperatureHumidityPressure
High73 °F (Sep 6, 8:51 AM)100% (Sep 6, 6:53 PM)30.43 "Hg (Sep 6, 6:53 PM)
Low27 °F (Sep 19, 5:00 AM)24% (Sep 19, 4:00 PM)29.62 "Hg (Sep 11, 3:00 PM)
Average52 °F81%30.10 "Hg
* Reported Sep 6 3:00 AM — Sep 21 3:00 AM, Sherbrooke, Weather by CustomWeather, © 2014

Note: Actual official high and low records may vary slightly from our data, if they occured in-between our weather recording intervals... More about our weather records

Advertising

Sherbrooke weather history for previous 24 hours

 ConditionsComfort  
Time TempWeatherWind HumidityBarometerVisibility
3:00 AM
Sep 21
63 °FPassing clouds.12 mph77%29.86 "Hg9 mi
2:00 AM63 °FPassing clouds.9 mph77%29.89 "Hg9 mi
1:00 AM63 °FPassing clouds.13 mph77%29.91 "Hg9 mi
12:00 AM63 °FPassing clouds.12 mph77%29.92 "Hg9 mi
11:00 PM
Sep 20
61 °FClear.9 mph83%29.94 "Hg9 mi
10:00 PM61 °FClear.5 mph83%29.95 "Hg9 mi
9:00 PM63 °FClear.12 mph77%29.90 "Hg9 mi
8:00 PM63 °FPartly cloudy.14 mph73%29.94 "Hg9 mi
7:00 PM63 °FMostly cloudy.10 mph73%29.99 "Hg9 mi
6:00 PM63 °FMore clouds than sun.14 mph73%29.99 "Hg9 mi
5:00 PM63 °FMostly cloudy.9 mph73%30.00 "Hg9 mi
4:00 PM63 °FMostly cloudy.15 mph73%30.00 "Hg9 mi
3:00 PM61 °FOvercast.10 mph72%30.02 "Hg9 mi
2:00 PM61 °FOvercast.12 mph72%30.03 "Hg9 mi
1:00 PM61 °FMore clouds than sun.13 mph68%30.06 "Hg9 mi
9:00 AM52 °FOvercast.13 mph77%30.14 "Hg9 mi
8:00 AM48 °FMostly cloudy.9 mph82%30.16 "Hg9 mi
7:00 AM39 °FPassing clouds.2 mph93%30.19 "Hg9 mi
6:00 AM37 °FPartly cloudy.2 mph93%30.19 "Hg9 mi
5:00 AM36 °FPassing clouds.2 mph93%30.22 "Hg9 mi
4:00 AM34 °FClear.3 mph93%30.23 "Hg9 mi
Weather by CustomWeather, © 2014

See weather overviewHow to use our weather pages